Time,TemperatureF,DewpointF,PressureIn,WindDirection,WindDirectionDegrees,WindSpeedMPH,WindSpeedGustMPH,Humidity,HourlyPrecipIn,Conditions,Clouds,dailyrainin,SolarRadiationWatts/m^2,SoftwareType,DateUTC
2013-01-20 00:02:00,40.9,32.0,29.74,WNW,289,7.0,20.0,71,0.00,,,0.02,0,weatherlink.com 1.10,2013-01-20 05:02:00,
2013-01-20 00:17:00,40.2,31.0,29.75,WSW,251,8.0,24.0,70,0.00,,,0.02,0,weatherlink.com 1.10,2013-01-20 05:17:00,
2013-01-20 00:32:00,39.3,29.0,29.74,NNW,328,10.0,21.0,67,0.00,,,0.02,0,weatherlink.com 1.10,2013-01-20 05:32:00,
2013-01-20 01:02:00,37.9,25.0,29.76,West,273,14.0,23.0,61,0.00,,,0.02,0,weatherlink.com 1.10,2013-01-20 06:02:00,
2013-01-20 01:18:00,36.8,20.0,29.77,WNW,289,17.0,26.0,51,0.00,,,0.02,0,weatherlink.com 1.10,2013-01-20 06:18:00,
2013-01-20 01:33:00,35.3,19.0,29.79,WNW,299,13.0,27.0,52,0.00,,,0.02,0,weatherlink.com 1.10,2013-01-20 06:33:00,
2013-01-20 01:48:00,34.1,18.0,29.81,WNW,289,4.0,28.0,53,0.00,,,0.02,0,weatherlink.com 1.10,2013-01-20 06:48:00,
2013-01-20 02:03:00,32.7,16.0,29.84,WNW,293,17.0,26.0,51,0.00,,,0.02,0,weatherlink.com 1.10,2013-01-20 07:03:00,
2013-01-20 02:18:00,30.7,12.0,29.86,WNW,300,16.0,27.0,45,0.00,,,0.02,0,weatherlink.com 1.10,2013-01-20 07:18:00,
2013-01-20 02:48:00,28.7,12.0,29.89,WNW,291,11.0,25.0,49,0.00,,,0.02,0,weatherlink.com 1.10,2013-01-20 07:48:00,
2013-01-20 03:03:00,27.8,12.0,29.91,WNW,285,8.0,23.0,51,0.00,,,0.02,0,weatherlink.com 1.10,2013-01-20 08:03:00,
2013-01-20 03:18:00,27.1,12.0,29.93,North,354,12.0,20.0,54,0.00,,,0.02,0,weatherlink.com 1.10,2013-01-20 08:18:00,
2013-01-20 03:33:00,26.4,13.0,29.95,WNW,289,14.0,18.0,57,0.00,,,0.02,0,weatherlink.com 1.10,2013-01-20 08:33:00,
2013-01-20 03:48:00,25.6,13.0,29.95,NW,308,8.0,23.0,60,0.00,,,0.02,0,weatherlink.com 1.10,2013-01-20 08:48:00,
2013-01-20 04:03:00,24.8,13.0,29.96,WNW,297,14.0,19.0,61,0.00,,,0.02,0,weatherlink.com 1.10,2013-01-20 09:03:00,
2013-01-20 04:18:00,24.4,13.0,29.97,WNW,287,10.0,18.0,62,0.00,,,0.02,0,weatherlink.com 1.10,2013-01-20 09:18:00,
2013-01-20 04:33:00,23.9,12.0,29.98,WNW,285,11.0,21.0,62,0.00,,,0.02,0,weatherlink.com 1.10,2013-01-20 09:33:00,
2013-01-20 04:48:00,23.4,12.0,29.99,WNW,295,17.0,26.0,61,0.00,,,0.02,0,weatherlink.com 1.10,2013-01-20 09:48:00,
2013-01-20 05:03:00,22.9,12.0,30.00,West,275,11.0,20.0,62,0.00,,,0.02,0,weatherlink.com 1.10,2013-01-20 10:03:00,
2013-01-20 05:18:00,22.3,11.0,30.01,WNW,287,11.0,24.0,62,0.00,,,0.02,0,weatherlink.com 1.10,2013-01-20 10:18:00,
2013-01-20 05:34:00,21.9,11.0,30.02,WNW,300,8.0,21.0,63,0.00,,,0.00,0,weatherlink.com 1.10,2013-01-20 10:34:00,
2013-01-20 05:49:00,21.3,11.0,30.03,WNW,298,13.0,25.0,64,0.00,,,0.00,0,weatherlink.com 1.10,2013-01-20 10:49:00,
2013-01-20 06:04:00,20.9,10.0,30.04,West,270,9.0,22.0,64,0.00,,,0.00,0,weatherlink.com 1.10,2013-01-20 11:04:00,
2013-01-20 06:19:00,20.5,9.0,30.05,WNW,289,10.0,22.0,62,0.00,,,0.00,0,weatherlink.com 1.10,2013-01-20 11:19:00,
2013-01-20 06:34:00,20.2,10.0,30.05,WNW,291,7.0,16.0,64,0.00,,,0.00,0,weatherlink.com 1.10,2013-01-20 11:34:00,
2013-01-20 06:49:00,20.0,10.0,30.07,NW,306,9.0,21.0,64,0.00,,,0.00,0,weatherlink.com 1.10,2013-01-20 11:49:00,
2013-01-20 07:04:00,19.6,10.0,30.09,West,273,7.0,20.0,66,0.00,,,0.00,0,weatherlink.com 1.10,2013-01-20 12:04:00,
2013-01-20 07:19:00,19.1,10.0,30.09,WNW,291,8.0,19.0,67,0.00,,,0.00,0,weatherlink.com 1.10,2013-01-20 12:19:00,
2013-01-20 07:34:00,19.1,10.0,30.10,NW,310,11.0,16.0,68,0.00,,,0.00,0,weatherlink.com 1.10,2013-01-20 12:34:00,
2013-01-20 07:49:00,18.9,10.0,30.11,West,269,6.0,23.0,68,0.00,,,0.00,0,weatherlink.com 1.10,2013-01-20 12:49:00,
2013-01-20 08:04:00,18.7,10.0,30.11,WNW,298,13.0,18.0,70,0.00,,,0.00,0,weatherlink.com 1.10,2013-01-20 13:04:00,
2013-01-20 08:19:00,18.5,11.0,30.13,WNW,283,10.0,16.0,72,0.00,,,0.00,5,weatherlink.com 1.10,2013-01-20 13:19:00,
2013-01-20 08:34:00,18.5,12.0,30.14,North,354,5.0,16.0,75,0.00,,,0.00,12,weatherlink.com 1.10,2013-01-20 13:34:00,
2013-01-20 08:49:00,18.5,11.0,30.15,North,10,5.0,13.0,73,0.00,,,0.00,21,weatherlink.com 1.10,2013-01-20 13:49:00,
2013-01-20 09:04:00,18.3,12.0,30.16,NW,309,17.0,17.0,75,0.00,,,0.00,42,weatherlink.com 1.10,2013-01-20 14:04:00,
2013-01-20 09:19:00,18.4,12.0,30.18,NNW,333,8.0,14.0,75,0.00,,,0.00,42,weatherlink.com 1.10,2013-01-20 14:19:00,
2013-01-20 09:34:00,18.0,12.0,30.18,WNW,303,9.0,17.0,77,0.00,,,0.00,76,weatherlink.com 1.10,2013-01-20 14:34:00,
2013-01-20 09:49:00,18.2,11.0,30.19,NW,326,7.0,19.0,72,0.00,,,0.00,90,weatherlink.com 1.10,2013-01-20 14:49:00,
2013-01-20 10:05:00,18.1,11.0,30.20,NNE,16,4.0,20.0,73,0.00,,,0.00,67,weatherlink.com 1.10,2013-01-20 15:05:00,
2013-01-20 10:20:00,17.5,12.0,30.21,West,280,7.0,15.0,80,0.00,,,0.00,91,weatherlink.com 1.10,2013-01-20 15:20:00,
2013-01-20 10:35:00,17.7,11.0,30.21,WNW,299,11.0,15.0,74,0.00,,,0.00,142,weatherlink.com 1.10,2013-01-20 15:35:00,
2013-01-20 10:50:00,18.2,11.0,30.21,West,270,8.0,18.0,72,0.00,,,0.00,223,weatherlink.com 1.10,2013-01-20 15:50:00,
2013-01-20 11:05:00,18.4,10.0,30.21,NW,314,11.0,16.0,70,0.00,,,0.00,243,weatherlink.com 1.10,2013-01-20 16:05:00,
2013-01-20 11:20:00,18.4,10.0,30.22,NW,316,10.0,17.0,70,0.00,,,0.00,264,weatherlink.com 1.10,2013-01-20 16:20:00,
2013-01-20 11:35:00,18.9,11.0,30.21,NW,315,4.0,16.0,71,0.00,,,0.00,257,weatherlink.com 1.10,2013-01-20 16:35:00,
2013-01-20 11:50:00,19.1,10.0,30.21,NW,312,6.0,17.0,69,0.00,,,0.00,207,weatherlink.com 1.10,2013-01-20 16:50:00,
2013-01-20 12:05:00,18.8,10.0,30.20,WNW,286,7.0,14.0,69,0.00,,,0.00,647,weatherlink.com 1.10,2013-01-20 17:05:00,
2013-01-20 12:20:00,19.5,10.0,30.20,SSW,213,5.0,17.0,67,0.00,,,0.00,257,weatherlink.com 1.10,2013-01-20 17:20:00,
2013-01-20 12:35:00,20.0,11.0,30.19,North,8,6.0,11.0,67,0.00,,,0.00,710,weatherlink.com 1.10,2013-01-20 17:35:00,
2013-01-20 12:50:00,20.8,10.0,30.18,WNW,302,2.0,10.0,64,0.00,,,0.00,603,weatherlink.com 1.10,2013-01-20 17:50:00,
2013-01-20 13:05:00,20.8,10.0,30.18,WNW,297,6.0,17.0,62,0.00,,,0.00,295,weatherlink.com 1.10,2013-01-20 18:05:00,
2013-01-20 13:20:00,21.1,11.0,30.18,North,8,3.0,12.0,64,0.00,,,0.00,592,weatherlink.com 1.10,2013-01-20 18:20:00,
2013-01-20 13:35:00,21.4,10.0,30.18,West,267,8.0,14.0,62,0.00,,,0.00,534,weatherlink.com 1.10,2013-01-20 18:35:00,
2013-01-20 13:50:00,21.5,10.0,30.18,NW,308,11.0,16.0,61,0.00,,,0.00,223,weatherlink.com 1.10,2013-01-20 18:50:00,
2013-01-20 14:05:00,21.1,9.0,30.18,WNW,303,12.0,18.0,61,0.00,,,0.00,225,weatherlink.com 1.10,2013-01-20 19:05:00,
2013-01-20 14:20:00,21.2,10.0,30.18,WNW,283,7.0,16.0,61,0.00,,,0.00,218,weatherlink.com 1.10,2013-01-20 19:20:00,
2013-01-20 14:35:00,21.5,10.0,30.18,WNW,296,9.0,13.0,62,0.00,,,0.00,239,weatherlink.com 1.10,2013-01-20 19:35:00,
2013-01-20 14:50:00,21.2,10.0,30.19,WNW,299,4.0,15.0,61,0.00,,,0.00,169,weatherlink.com 1.10,2013-01-20 19:50:00,
2013-01-20 15:05:00,21.2,10.0,30.18,NW,312,5.0,11.0,62,0.00,,,0.00,236,weatherlink.com 1.10,2013-01-20 20:05:00,
2013-01-20 15:20:00,21.3,9.0,30.19,WNW,290,6.0,13.0,59,0.00,,,0.00,265,weatherlink.com 1.10,2013-01-20 20:20:00,
2013-01-20 15:35:00,21.4,9.0,30.18,WNW,288,6.0,11.0,59,0.00,,,0.00,199,weatherlink.com 1.10,2013-01-20 20:35:00,
2013-01-20 15:50:00,21.2,8.0,30.18,WNW,284,7.0,11.0,58,0.00,,,0.00,167,weatherlink.com 1.10,2013-01-20 20:50:00,
2013-01-20 16:05:00,20.9,8.0,30.18,WNW,297,3.0,12.0,58,0.00,,,0.00,141,weatherlink.com 1.10,2013-01-20 21:05:00,
2013-01-20 16:20:00,21.0,9.0,30.19,NW,308,5.0,9.0,59,0.00,,,0.00,98,weatherlink.com 1.10,2013-01-20 21:20:00,
2013-01-20 16:35:00,20.9,9.0,30.19,WNW,299,6.0,12.0,59,0.00,,,0.00,90,weatherlink.com 1.10,2013-01-20 21:35:00,
2013-01-20 16:50:00,20.6,9.0,30.19,NNW,332,3.0,11.0,60,0.00,,,0.00,70,weatherlink.com 1.10,2013-01-20 21:50:00,
2013-01-20 17:05:00,20.6,8.0,30.19,NNW,330,8.0,13.0,58,0.00,,,0.00,44,weatherlink.com 1.10,2013-01-20 22:05:00,
2013-01-20 17:20:00,20.3,8.0,30.18,North,4,5.0,9.0,58,0.00,,,0.00,25,weatherlink.com 1.10,2013-01-20 22:20:00,
2013-01-20 17:35:00,20.2,8.0,30.19,North,359,3.0,9.0,59,0.00,,,0.00,11,weatherlink.com 1.10,2013-01-20 22:35:00,
2013-01-20 17:50:00,19.9,7.0,30.20,NW,314,2.0,10.0,58,0.00,,,0.00,0,weatherlink.com 1.10,2013-01-20 22:50:00,
2013-01-20 18:05:00,19.8,7.0,30.20,NW,316,3.0,7.0,59,0.00,,,0.00,0,weatherlink.com 1.10,2013-01-20 23:05:00,
2013-01-20 18:20:00,19.5,8.0,30.20,NW,308,6.0,6.0,60,0.00,,,0.00,0,weatherlink.com 1.10,2013-01-20 23:20:00,
2013-01-20 18:35:00,19.5,8.0,30.20,NW,316,4.0,7.0,62,0.00,,,0.00,0,weatherlink.com 1.10,2013-01-20 23:35:00,
2013-01-20 18:50:00,19.4,8.0,30.20,NW,319,3.0,7.0,62,0.00,,,0.00,0,weatherlink.com 1.10,2013-01-20 23:50:00,
2013-01-20 19:05:00,19.4,9.0,30.20,NW,322,5.0,5.0,63,0.00,,,0.00,0,weatherlink.com 1.10,2013-01-21 00:05:00,
2013-01-20 19:20:00,19.2,8.0,30.20,NW,314,3.0,6.0,63,0.00,,,0.00,0,weatherlink.com 1.10,2013-01-21 00:20:00,
2013-01-20 19:35:00,19.2,9.0,30.20,NW,314,0.0,4.0,64,0.00,,,0.00,0,weatherlink.com 1.10,2013-01-21 00:35:00,
2013-01-20 19:50:00,19.2,9.0,30.20,NW,314,1.0,5.0,64,0.00,,,0.00,0,weatherlink.com 1.10,2013-01-21 00:50:00,
2013-01-20 20:05:00,19.0,9.0,30.20,NW,314,0.0,3.0,64,0.00,,,0.00,0,weatherlink.com 1.10,2013-01-21 01:05:00,
2013-01-20 20:20:00,19.0,9.0,30.20,NW,314,0.0,4.0,65,0.00,,,0.00,0,weatherlink.com 1.10,2013-01-21 01:20:00,
2013-01-20 20:35:00,18.9,9.0,30.20,NW,314,1.0,4.0,66,0.00,,,0.00,0,weatherlink.com 1.10,2013-01-21 01:35:00,
2013-01-20 20:50:00,18.8,9.0,30.19,NW,314,0.0,4.0,66,0.00,,,0.00,0,weatherlink.com 1.10,2013-01-21 01:50:00,
2013-01-20 21:05:00,18.7,9.0,30.19,NW,314,3.0,4.0,67,0.00,,,0.00,0,weatherlink.com 1.10,2013-01-21 02:05:00,
2013-01-20 21:20:00,18.7,9.0,30.18,WSW,241,5.0,6.0,67,0.00,,,0.00,0,weatherlink.com 1.10,2013-01-21 02:20:00,
2013-01-20 21:35:00,18.8,9.0,30.18,WSW,246,7.0,9.0,66,0.00,,,0.00,0,weatherlink.com 1.10,2013-01-21 02:35:00,
2013-01-20 21:50:00,19.0,9.0,30.17,WSW,256,5.0,7.0,65,0.00,,,0.00,0,weatherlink.com 1.10,2013-01-21 02:50:00,
2013-01-20 22:05:00,19.0,9.0,30.17,West,272,3.0,8.0,64,0.00,,,0.00,0,weatherlink.com 1.10,2013-01-21 03:05:00,
2013-01-20 22:20:00,19.0,8.0,30.17,WNW,297,3.0,11.0,63,0.00,,,0.00,0,weatherlink.com 1.10,2013-01-21 03:20:00,
2013-01-20 22:35:00,18.9,8.0,30.17,WNW,300,2.0,6.0,63,0.00,,,0.00,0,weatherlink.com 1.10,2013-01-21 03:35:00,
2013-01-20 22:53:00,18.6,8.0,30.17,WNW,290,4.0,9.0,63,0.00,,,0.00,0,weatherlink.com 1.10,2013-01-21 03:53:00,
2013-01-20 23:05:00,18.3,8.0,30.17,WNW,299,2.0,9.0,63,0.00,,,0.00,0,weatherlink.com 1.10,2013-01-21 04:05:00,
2013-01-20 23:20:00,18.1,7.0,30.17,WNW,302,4.0,12.0,63,0.00,,,0.00,0,weatherlink.com 1.10,2013-01-21 04:20:00,
2013-01-20 23:35:00,18.1,7.0,30.16,West,266,4.0,8.0,63,0.00,,,0.00,0,weatherlink.com 1.10,2013-01-21 04:35:00,
2013-01-20 23:50:00,18.0,7.0,30.16,NW,307,1.0,8.0,63,0.00,,,0.00,0,weatherlink.com 1.10,2013-01-21 04:50:00,